Stations météo

Publicité
Plaisance, Iles Maurice (61990): Température de l'air & dewpoint: 21.05.2019 07:00:00 - 27.05.2019 07:00:00 (MUT)Plaisance, Iles Maurice (61990): Vitesse du vent: 21.05.2019 07:00:00 - 27.05.2019 07:00:00 (MUT)Plaisance, Iles Maurice (61990): Direction du vent: 21.05.2019 07:00:00 - 27.05.2019 07:00:00 (MUT)Plaisance, Iles Maurice (61990): reduced air pressure: 21.05.2019 07:00:00 - 27.05.2019 07:00:00 (MUT)Plaisance, Iles Maurice (61990): visibility: 21.05.2019 07:00:00 - 27.05.2019 07:00:00 (MUT)
Date & Time tt [°C] td [°C] ff [km/h] ff [knt] dd ppp [hPa] vv [km]
27.05.2019 07:00:00 - - - - - - -
27.05.2019 06:00:00 23,0 20,0 16 9 SSW - 10
27.05.2019 05:00:00 24,0 20,0 16 9 S - 10
27.05.2019 04:00:00 24,4 18,0 9 5 S 1015,3 10
27.05.2019 03:00:00 24,0 18,0 5 3 SSE - 10
27.05.2019 02:00:00 24,0 17,0 5 3 SSE - 10
27.05.2019 01:00:00 24,0 18,0 11 6 SSE - 10
27.05.2019 00:00:00 24,0 18,0 11 6 SSE - 10
26.05.2019 23:00:00 24,0 19,0 9 5 SSE - 10
26.05.2019 22:00:00 24,5 19,4 13 7 SSE 1017,1 10
26.05.2019 21:00:00 24,0 19,0 15 8 SSE - 10
26.05.2019 20:00:00 24,0 19,0 13 7 SSE - 10
26.05.2019 19:00:00 24,0 19,4 16 9 SSE 1016,2 10
26.05.2019 18:00:00 24,0 19,0 15 8 SSE - 10
26.05.2019 17:00:00 25,0 19,0 15 8 S - 10
26.05.2019 16:00:00 25,2 19,7 16 9 SSE 1015,2 18
26.05.2019 15:00:00 25,0 19,0 18 10 SSE - 10
26.05.2019 14:00:00 25,0 20,0 21 11 SSE - 10
26.05.2019 13:00:00 24,9 19,3 22 12 SSE 1016,0 8
26.05.2019 12:00:00 25,0 20,0 22 12 SSE - 8
26.05.2019 11:00:00 24,0 20,0 22 12 S - 6
26.05.2019 10:00:00 23,7 20,0 22 12 SSE 1017,8 6
26.05.2019 09:00:00 23,0 20,0 22 12 SSE - 6
26.05.2019 08:00:00 23,0 20,0 18 10 S - 6
26.05.2019 07:00:00 23,3 19,5 22 12 S 1016,7 5
26.05.2019 06:00:00 22,0 20,0 21 11 S - 3,0
26.05.2019 05:00:00 22,0 21,0 24 13 S - 2,0
26.05.2019 04:00:00 22,5 21,7 21 11 S 1016,3 2,0
26.05.2019 03:00:00 23,0 22,0 18 10 SSE - 3,0
26.05.2019 02:00:00 23,0 21,0 21 11 SSE - 8
26.05.2019 01:00:00 23,0 22,0 15 8 SSE - 2,0
26.05.2019 00:00:00 23,0 22,0 18 10 SE - 3,0
25.05.2019 23:00:00 23,0 22,0 18 10 SE - 4,0
25.05.2019 22:00:00 23,2 22,4 15 8 SE 1017,7 2,0
25.05.2019 21:00:00 23,0 22,0 16 9 SE - 3,0
25.05.2019 20:00:00 24,0 22,0 18 10 SE - 7
25.05.2019 19:00:00 23,7 21,8 15 8 SE 1017,0 5
25.05.2019 18:00:00 23,0 21,0 15 8 ESE - 5
25.05.2019 17:00:00 24,0 23,0 18 10 S - 5
25.05.2019 16:00:00 26,0 22,5 18 10 SE 1015,6 8
25.05.2019 15:00:00 26,0 22,0 16 9 SSE - 10
25.05.2019 14:00:00 26,0 22,0 18 10 S - 8
25.05.2019 13:00:00 26,5 22,3 16 9 SSE 1016,4 10
25.05.2019 12:00:00 26,0 23,0 22 12 S - 8
25.05.2019 11:00:00 27,0 22,0 16 9 S - 10
25.05.2019 10:00:00 27,0 22,2 9 5 SSW 1017,7 10
25.05.2019 09:00:00 26,0 21,0 0 0 N - 10
25.05.2019 08:00:00 24,0 22,0 0 0 N - 10
25.05.2019 07:00:00 23,0 20,7 5 3 NW 1016,7 10
25.05.2019 06:00:00 23,0 21,0 8 4 NW - 10
25.05.2019 05:00:00 23,0 21,0 0 0 N - 10
25.05.2019 04:00:00 23,9 21,2 2 1 W 1015,6 10
25.05.2019 03:00:00 23,0 21,0 8 4 W - 10
25.05.2019 02:00:00 23,0 21,0 5 3 NW - 10
25.05.2019 01:00:00 23,0 21,0 5 3 NW - 10
25.05.2019 00:00:00 23,0 21,0 5 3 NNW - 10
24.05.2019 23:00:00 23,0 21,0 9 5 NW - 10
24.05.2019 22:00:00 23,9 20,9 4 2 NW 1017,4 10
24.05.2019 21:00:00 24,0 20,0 8 4 NW - 10
24.05.2019 20:00:00 24,0 21,0 5 3 NNW - 10
24.05.2019 19:00:00 24,4 19,9 0 0 N 1016,6 10
24.05.2019 18:00:00 25,0 20,0 0 0 N - 10
24.05.2019 17:00:00 27,0 19,0 4 2 SSE - 10
24.05.2019 16:00:00 28,0 18,7 9 5 S 1015,2 10
24.05.2019 15:00:00 28,0 19,0 5 3 SE - 10
24.05.2019 14:00:00 28,0 19,0 11 6 E - 10
24.05.2019 13:00:00 28,2 18,7 9 5 SE 1015,9 10
24.05.2019 12:00:00 29,0 19,0 4 2 - - 10
24.05.2019 11:00:00 28,0 20,0 5 3 NNE - 10
24.05.2019 10:00:00 27,4 20,2 8 4 NNE 1018,0 10
24.05.2019 09:00:00 25,0 20,0 4 2 - - 10
24.05.2019 08:00:00 21,0 19,0 13 7 NW - 10
24.05.2019 07:00:00 19,0 18,2 13 7 NW 1017,2 10
24.05.2019 06:00:00 19,0 18,0 11 6 NW - 10
24.05.2019 05:00:00 19,0 18,0 13 7 NNW - 10
24.05.2019 04:00:00 20,0 18,7 13 7 NW 1016,7 10
24.05.2019 03:00:00 20,0 19,0 11 6 NW - 10
24.05.2019 02:00:00 20,0 18,0 11 6 NNW - 10
24.05.2019 01:00:00 20,0 19,0 11 6 NNW - 10
24.05.2019 00:00:00 21,0 19,0 13 7 NNW - 10
23.05.2019 23:00:00 21,0 19,0 11 6 NNW - 10
23.05.2019 22:00:00 22,7 19,7 9 5 NNW 1018,2 10
23.05.2019 21:00:00 22,0 20,0 8 4 NNW - 10
23.05.2019 20:00:00 23,0 20,0 0 0 N - 10
23.05.2019 19:00:00 23,9 20,1 0 0 N 1016,9 10
23.05.2019 18:00:00 25,0 20,0 8 4 E - 10
23.05.2019 17:00:00 26,0 19,0 15 8 ENE - 10
23.05.2019 16:00:00 27,4 19,7 16 9 ENE 1015,7 10
23.05.2019 15:00:00 27,0 20,0 21 11 ENE - 10
23.05.2019 14:00:00 28,0 20,0 21 11 ENE - 10
23.05.2019 13:00:00 27,3 21,2 21 11 E 1016,5 10
23.05.2019 12:00:00 28,0 21,0 18 10 E - 10
23.05.2019 11:00:00 28,0 21,0 18 10 ENE - 10
23.05.2019 10:00:00 27,5 21,2 13 7 ESE 1018,4 10
23.05.2019 09:00:00 25,0 22,0 16 9 E - 10
23.05.2019 08:00:00 24,0 22,0 9 5 NNW - 10
23.05.2019 07:00:00 22,4 20,6 0 0 N 1017,6 10
23.05.2019 06:00:00 22,0 20,0 5 3 N - 10
23.05.2019 05:00:00 23,0 21,0 8 4 NNW - 10
23.05.2019 04:00:00 23,7 21,7 4 2 N 1016,6 10
23.05.2019 03:00:00 24,0 21,0 5 3 NNE - 10
23.05.2019 02:00:00 24,0 21,0 11 6 E - 10
23.05.2019 01:00:00 24,0 21,0 0 0 N - 10
23.05.2019 00:00:00 24,0 21,0 5 3 ENE - 10
22.05.2019 23:00:00 24,0 21,0 8 4 E - 10
22.05.2019 22:00:00 25,0 21,2 9 5 E 1018,7 10
22.05.2019 21:00:00 25,0 21,0 15 8 E - 10
22.05.2019 20:00:00 25,0 22,0 5 3 SE - 10
22.05.2019 19:00:00 25,1 21,5 9 5 ESE 1018,2 10
22.05.2019 18:00:00 26,0 22,0 8 4 E - 10
22.05.2019 17:00:00 27,0 21,0 9 5 E - 10
22.05.2019 16:00:00 27,5 21,0 9 5 E 1017,3 10
22.05.2019 15:00:00 27,0 21,0 9 5 NE - 10
22.05.2019 14:00:00 26,0 21,0 9 5 ENE - 8
22.05.2019 13:00:00 25,2 19,9 2 1 ENE 1018,3 6
22.05.2019 12:00:00 25,0 22,0 13 7 N - 8
22.05.2019 11:00:00 25,0 21,0 4 2 N - 8
22.05.2019 10:00:00 25,5 20,2 5 3 E 1019,7 10
22.05.2019 09:00:00 25,0 21,0 4 2 N - 10
22.05.2019 08:00:00 24,0 20,0 9 5 E - 10
22.05.2019 07:00:00 23,5 19,7 9 5 E 1018,4 10
22.05.2019 06:00:00 24,0 19,0 8 4 E - 10
22.05.2019 05:00:00 24,0 19,0 11 6 E - 10
22.05.2019 04:00:00 23,5 19,4 11 6 E 1017,9 20
22.05.2019 03:00:00 24,0 19,0 9 5 E - 10
22.05.2019 02:00:00 24,0 19,0 5 3 ESE - 10
22.05.2019 01:00:00 24,0 19,0 11 6 E - 10
22.05.2019 00:00:00 24,0 19,0 9 5 E - 10
21.05.2019 23:00:00 24,0 20,0 5 3 E - 10
21.05.2019 22:00:00 24,4 19,7 5 3 E 1019,6 10
21.05.2019 21:00:00 24,0 20,0 8 4 E - 10
21.05.2019 20:00:00 24,0 20,0 8 4 E - 10
21.05.2019 19:00:00 24,5 19,7 11 6 E 1018,6 10
21.05.2019 18:00:00 25,0 20,0 11 6 E - 10
21.05.2019 17:00:00 26,0 20,0 16 9 E - 10
21.05.2019 16:00:00 26,9 20,9 18 10 E 1017,9 10
21.05.2019 15:00:00 27,0 21,0 13 7 ENE - 10
21.05.2019 14:00:00 28,0 21,0 15 8 ENE - 10
21.05.2019 13:00:00 27,2 21,1 18 10 ENE 1018,1 10
21.05.2019 12:00:00 27,0 21,0 18 10 ENE - 10
21.05.2019 11:00:00 28,0 21,0 18 10 ENE - 10
21.05.2019 10:00:00 27,2 20,9 18 10 ENE 1019,4 10
21.05.2019 09:00:00 26,0 22,0 18 10 ENE - 10
21.05.2019 08:00:00 24,0 21,0 5 3 N - 10
21.05.2019 07:00:00 22,5 20,8 9 5 NW 1018,0 10

tt = Température de l'air
td = dewpoint
ff = Vitesse du vent
dd = Direction du vent
ppp = reduced air pressure
vv = visibility

stations d'obs. à proximité